This is the latest recevied weather packets stored in our database for station/object SQ6XL-13. If no packets are shown the sender has not sent any weather packets the latest 10 day(s).
| Time | Temp. | Humidity | Pressure | Rain* | Wind** | Luminosity | Snow |
|---|---|---|---|---|---|---|---|
| 1787901102 | 18.33° C | 83% | 1016.9 hPa | 0 mm | - | - | - |
| 1787900516 | 17.22° C | 85% | 1016.8 hPa | 0 mm | - | - | - |
| 1787899957 | 16.67° C | 86% | 1016.8 hPa | 0 mm | - | - | - |
| 1787899457 | 16.11° C | 87% | 1016.6 hPa | 0 mm | - | - | - |
| 1787898967 | 16.11° C | 86% | 1016.5 hPa | 0 mm | - | - | - |
| 1787898397 | 16.11° C | 86% | 1016.6 hPa | 0 mm | - | - | - |
| 1787897911 | 16.11° C | 87% | 1016.6 hPa | 0 mm | - | - | - |
| 1787897337 | 15.56° C | 90% | 1016.8 hPa | 0 mm | - | - | - |
| 1787896737 | 15° C | 92% | 1016.9 hPa | 0 mm | - | - | - |
| 1787896242 | 15° C | 96% | 1017 hPa | 0 mm | - | - | - |
| 1787895722 | 14.44° C | 96% | 1017.1 hPa | 0 mm | - | - | - |
| 1787895182 | 13.33° C | 97% | 1017.1 hPa | 0 mm | - | - | - |
| 1787894642 | 12.22° C | 96% | 1017.3 hPa | 0 mm | - | - | - |
| 1787894136 | 12.22° C | 95% | 1017.3 hPa | 0 mm | - | - | - |
| 1787893556 | 11.67° C | 95% | 1017.4 hPa | 0 mm | - | - | - |
| 1787893072 | 11.67° C | 95% | 1017.5 hPa | 0 mm | - | - | - |
| 1787892471 | 11.11° C | 95% | 1017.4 hPa | 0 mm | - | - | - |
| 1787891947 | 11.11° C | 95% | 1017.1 hPa | 0 mm | - | - | - |
| 1787891347 | 11.11° C | 95% | 1017.1 hPa | 0 mm | - | - | - |
| 1787890802 | 11.11° C | 94% | 1017.3 hPa | 0 mm | - | - | - |
| 1787890302 | 11.11° C | 94% | 1017.5 hPa | 0 mm | - | - | - |
| 1787889753 | 11.11° C | 94% | 1017.4 hPa | 0 mm | - | - | - |
| 1787889262 | 11.11° C | 94% | 1017.5 hPa | 0 mm | - | - | - |
| 1787888742 | 11.11° C | 94% | 1017.6 hPa | 0 mm | - | - | - |
| 1787888189 | 11.11° C | 94% | 1017.8 hPa | 0 mm | - | - | - |
* Rain latest hour (hover to see other rain measurements)
** Current wind speed in m/s (hover to see current wind gust speed)